Weather History for Naples, Italy

Change the Weather History Date:

Saturday, October 13, 2012

  Actual Average Record
Temperature  
Mean Temperature 68 °F -  
Max Temperature 73 °F 68 °F 87 °F (2000)
Min Temperature 62 °F 50 °F 48 °F (2002)
Cooling Degree Days 2    
Growing Degree Days 18 (Base 50)    
Moisture  
Dew Point 64 °F    
Average Humidity 90    
Maximum Humidity 100    
Minimum Humidity 73    
Precipitation  
Precipitation 0.00 in 0.19 in - ()
Sea Level Pressure  
Sea Level Pressure 29.88 in    
Wind  
Wind Speed 2 mph ()    
Max Wind Speed 6 mph    
Max Gust Speed 15 mph    
Visibility 5.8 miles    
Events Rain    
Averages and records for this station are not official NWS values.
T = Trace of Precipitation, MM = Missing Value Source: Averaged Metar Reports

Daily Weather History Graph

Daily Weather History Graph

Search for Another Location

Airport:

Trip Planner

Search our weather history database for the weather conditions in past years. The results will help you decide how hot, cold, wet, or windy it might be!

Date:

Astronomy

Oct. 13, 2012 Rise Set
Actual Time 7:12 AM CEST 6:25 PM CEST
Civil Twilight 6:44 AM CEST 6:52 PM CEST
Nautical Twilight 6:12 AM CEST 7:24 PM CEST
Astronomical Twilight 5:41 AM CEST 7:56 PM CEST
Moon 4:41 AM CEST (10/13) 4:59 PM CEST (10/13)
Length of Visible Light 12h 08m
Length of Day
11h 12m
Waning Crescent, 6% of the Moon is Illuminated
Oct 13
Waning Crescent
Oct 15
New
Oct 22
First Quarter
Oct 29
Full
Nov 7
Last Quarter

Hourly Weather History & Observations

Time (CEST) Temp. Dew Point Humidity Pressure Visibility Wind Dir Wind Speed Gust Speed Precip Events Conditions
12:20 AM 68.0 °F 66.2 °F 94% 29.92 in 6.2 mi WSW 3.5 mph - N/A   Partly Cloudy
12:50 AM 68.0 °F 64.4 °F 88% 29.92 in 6.2 mi Variable 1.2 mph - N/A Rain Light Rain
1:20 AM 66.2 °F 64.4 °F 94% 29.92 in 6.2 mi NE 3.5 mph - N/A   Partly Cloudy
1:50 AM 66.2 °F 64.4 °F 94% 29.92 in 6.2 mi Variable 2.3 mph - N/A   Partly Cloudy
2:20 AM 64.4 °F 62.6 °F 94% 29.92 in - Variable 1.2 mph - N/A   Clear
2:50 AM 64.4 °F 62.6 °F 94% 29.92 in 6.2 mi West 2.3 mph - N/A   Partly Cloudy
3:20 AM 64.4 °F 64.4 °F 100% 29.92 in 6.2 mi SW 2.3 mph - N/A   Partly Cloudy
3:50 AM 64.4 °F 62.6 °F 94% 29.92 in 6.2 mi NE 4.6 mph - N/A   Partly Cloudy
4:20 AM 62.6 °F 62.6 °F 100% 29.92 in - Variable 1.2 mph - N/A   Clear
4:50 AM 62.6 °F 60.8 °F 94% 29.92 in - Variable 2.3 mph - N/A   Clear
5:20 AM 62.6 °F 62.6 °F 100% 29.92 in 6.2 mi NNE 2.3 mph - N/A   Partly Cloudy
5:50 AM 62.6 °F 62.6 °F 100% 29.89 in 6.2 mi ENE 2.3 mph - N/A   Partly Cloudy
6:20 AM 62.6 °F 62.6 °F 100% 29.89 in 6.2 mi NE 2.3 mph - N/A   Partly Cloudy
6:50 AM 62.6 °F 62.6 °F 100% 29.89 in 6.2 mi NNE 1.2 mph - N/A   Partly Cloudy
7:20 AM 64.4 °F 62.6 °F 94% 29.89 in 6.2 mi Calm Calm - N/A   Partly Cloudy
8:20 AM 66.2 °F 64.4 °F 94% 29.89 in 6.2 mi Variable 2.3 mph - N/A   Partly Cloudy
8:50 AM 66.2 °F 64.4 °F 94% 29.92 in 6.2 mi Variable 2.3 mph - N/A   Partly Cloudy
9:20 AM 68.0 °F 64.4 °F 88% 29.92 in 6.2 mi NNE 2.3 mph - N/A   Partly Cloudy
9:50 AM 68.0 °F 64.4 °F 88% 29.92 in 6.2 mi Variable 2.3 mph - N/A   Scattered Clouds
10:50 AM 69.8 °F 66.2 °F 88% 29.92 in 6.2 mi North 5.8 mph - N/A   Scattered Clouds
11:20 AM 69.8 °F 66.2 °F 88% 29.92 in 6.2 mi Variable 2.3 mph - N/A   Mostly Cloudy
11:50 AM 71.6 °F 66.2 °F 83% 29.92 in 6.2 mi Variable 2.3 mph - N/A   Mostly Cloudy
12:20 PM 71.6 °F 68.0 °F 88% 29.92 in 6.2 mi South 3.5 mph - N/A   Mostly Cloudy
12:50 PM 69.8 °F 66.2 °F 88% 29.92 in 3.7 mi South 3.5 mph - N/A   Mostly Cloudy
1:20 PM 69.8 °F 66.2 °F 88% 29.89 in 3.7 mi South 3.5 mph - N/A   Overcast
1:50 PM 71.6 °F 66.2 °F 83% 29.89 in 6.2 mi South 3.5 mph - N/A   Mostly Cloudy
2:20 PM 71.6 °F 66.2 °F 83% 29.89 in 6.2 mi Variable 1.2 mph - N/A   Mostly Cloudy
2:50 PM 73.4 °F 66.2 °F 78% 29.86 in 6.2 mi Variable 2.3 mph - N/A   Mostly Cloudy
3:20 PM 71.6 °F 64.4 °F 78% 29.86 in 6.2 mi Variable 2.3 mph - N/A   Mostly Cloudy
3:50 PM 71.6 °F 64.4 °F 78% 29.86 in 6.2 mi SSW 2.3 mph - N/A   Mostly Cloudy
4:20 PM 71.6 °F 62.6 °F 73% 29.86 in 6.2 mi South 3.5 mph - N/A   Mostly Cloudy
4:50 PM 68.0 °F 64.4 °F 88% 29.83 in 5.0 mi SSW 3.5 mph - N/A Rain Light Rain
5:20 PM 71.6 °F 66.2 °F 83% 29.83 in 6.2 mi South 3.5 mph 15.0 mph N/A   Mostly Cloudy
5:50 PM 69.8 °F 64.4 °F 83% 29.83 in 6.2 mi Variable 2.3 mph - N/A   Mostly Cloudy
6:20 PM 69.8 °F 64.4 °F 83% 29.83 in 6.2 mi Variable 1.2 mph - N/A   Mostly Cloudy
6:50 PM 69.8 °F 64.4 °F 83% 29.83 in 6.2 mi WNW 1.2 mph - N/A   Mostly Cloudy
7:20 PM - - N/A% - 6.2 mi Variable 1.2 mph - N/A   Scattered Clouds
7:50 PM 69.8 °F 64.4 °F 83% 29.83 in 6.2 mi Variable 2.3 mph - N/A   Mostly Cloudy
8:20 PM 68.0 °F 59.0 °F 73% 29.83 in 6.2 mi NNW 4.6 mph - N/A Rain Light Rain
8:50 PM 64.4 °F 60.8 °F 88% 29.83 in 2.5 mi Variable 2.3 mph - N/A Rain Rain
9:20 PM 64.4 °F 62.6 °F 94% 29.83 in 3.1 mi Variable 2.3 mph - N/A Rain Rain
9:50 PM 64.4 °F 62.6 °F 94% 29.86 in 3.1 mi Variable 1.2 mph - N/A Rain Rain
10:20 PM 64.4 °F 62.6 °F 94% 29.83 in 5.0 mi Variable 1.2 mph - N/A Rain Light Rain
10:50 PM 64.4 °F 62.6 °F 94% 29.83 in 5.0 mi Variable 1.2 mph - N/A   Scattered Clouds
11:20 PM 64.4 °F 62.6 °F 94% 29.83 in 6.2 mi Variable 1.2 mph - N/A   Scattered Clouds
11:50 PM 62.6 °F 62.6 °F 100% 29.83 in 6.2 mi WSW 2.3 mph - N/A   Scattered Clouds